Newark, NJ

2:33 AM EST on January 19, 2017 (GMT -0500)
Newark International

Weather History for KEWR - January, 2013

Change the Weather History Date:

Thursday, January 31, 2013

  Actual Average Record
Temperature  
Mean Temperature 46 °F 32 °F  
Max Temperature 62 °F 40 °F 64 °F (1947)
Min Temperature 30 °F 25 °F 1 °F (1948)
Degree Days  
Heating Degree Days 19 33  
Month to date heating degree days 912 1036  
Since 1 July heating degree days 2521 2784  
Cooling Degree Days 0 0  
Month to date cooling degree days 0 0  
Year to date cooling degree days 0 0  
Moisture  
Dew Point 35 °F    
Average Humidity 62    
Maximum Humidity 90    
Minimum Humidity 33    
Precipitation  
Precipitation 0.79 in 0.11 in 1.04 in (1937)
Month to date precipitation 2.49 3.54  
Year to date precipitation 2.49 3.54  
Snow  
Snow T in 0.30 in 4.40 in (1949)
Month to date snowfall 1.4 7.9  
Since 1 July snowfall 9.9 13.7  
Snow Depth 0.00 in    
Sea Level Pressure  
Sea Level Pressure 29.37 in    
Wind  
Wind Speed 27 mph (WSW)    
Max Wind Speed 45 mph    
Max Gust Speed 59 mph    
Visibility 8 miles    
Events Rain , Thunderstorm    
T = Trace of Precipitation, MM = Missing Value Source: NWS Daily Summary

Daily Weather History Graph

Daily Weather History Graph

Search for Another Location

Airport or City:

Trip Planner

Search our weather history database for the weather conditions in past years. The results will help you decide how hot, cold, wet, or windy it might be!

Date:

Astronomy

Jan. 31, 2013 Rise Set
Actual Time 7:07 AM EST 5:13 PM EST
Civil Twilight 6:38 AM EST 5:42 PM EST
Nautical Twilight 6:05 AM EST 6:15 PM EST
Astronomical Twilight 5:33 AM EST 6:47 PM EST
Moon 10:15 PM EST (1/31) 9:03 AM EST (1/31)
Length of Visible Light 11h 04m
Length of Day
10h 06m
Waning Gibbous, 80% of the Moon is Illuminated
Jan 31
Waning Gibbous
Feb 3
Last Quarter
Feb 10
New
Feb 17
First Quarter
Feb 25
Full

Hourly Weather History & Observations

Time (EST) Temp. Windchill Dew Point Humidity Pressure Visibility Wind Dir Wind Speed Gust Speed Precip Events Conditions
12:35 AM 62.6 °F - 57.2 °F 82% 29.31 in 6.0 mi South 20.7 mph 29.9 mph 0.04 in Rain , Thunderstorm Light Thunderstorms and Rain
12:51 AM 62.1 °F - 59.0 °F 90% 29.30 in 4.0 mi South 25.3 mph 36.8 mph 0.09 in Rain , Thunderstorm Light Thunderstorms and Rain
1:02 AM 60.8 °F - 59.0 °F 94% 29.28 in 5.0 mi South 19.6 mph 35.7 mph 0.01 in Rain Rain
1:51 AM 62.1 °F - 57.9 °F 86% 29.20 in 6.0 mi South 23.0 mph 39.1 mph 0.07 in Rain Light Rain
2:51 AM 62.1 °F - 57.9 °F 86% 29.13 in 6.0 mi South 31.1 mph 47.2 mph 0.05 in Rain Light Rain
3:51 AM 62.1 °F - 59.0 °F 90% 29.06 in 3.0 mi South 27.6 mph 44.9 mph 0.19 in Rain Rain
4:03 AM 60.8 °F - 59.0 °F 94% 29.14 in 1.0 mi SW 40.3 mph 58.7 mph 0.03 in Rain Rain
4:12 AM 59.0 °F - 57.2 °F 94% 29.12 in 3.0 mi SW 24.2 mph 40.3 mph 0.25 in Rain Rain
4:34 AM 60.8 °F - 57.2 °F 88% 29.12 in 6.0 mi SW 18.4 mph 26.5 mph 0.28 in Rain Light Rain
4:51 AM 60.1 °F - 55.9 °F 86% 29.12 in 6.0 mi SSW 17.3 mph 25.3 mph 0.30 in Rain Light Rain
5:04 AM 59.0 °F - 55.4 °F 88% 29.11 in 7.0 mi SW 18.4 mph 27.6 mph 0.03 in Rain Light Rain
5:51 AM 57.9 °F - 54.0 °F 87% 29.06 in 10.0 mi South 16.1 mph 23.0 mph 0.06 in   Overcast
6:30 AM 57.2 °F - 53.6 °F 88% 29.09 in 4.0 mi WSW 20.7 mph 34.5 mph 0.02 in Rain Rain
6:39 AM 53.6 °F - 48.2 °F 82% 29.11 in 3.0 mi West 42.6 mph 55.2 mph 0.03 in Rain Light Rain
6:51 AM 51.1 °F - 43.0 °F 74% 29.16 in 10.0 mi West 29.9 mph 49.5 mph 0.03 in   Overcast
7:29 AM 48.2 °F - 35.6 °F 62% 29.19 in 10.0 mi West 27.6 mph 34.5 mph N/A   Mostly Cloudy
7:51 AM 46.9 °F - 34.0 °F 61% 29.21 in 10.0 mi West 31.1 mph 38.0 mph 0.01 in   Mostly Cloudy
8:51 AM 46.0 °F 35.5 °F 30.0 °F 54% 29.31 in 10.0 mi West 39.1 mph 48.3 mph N/A   Mostly Cloudy
9:51 AM 44.1 °F 33.7 °F 25.0 °F 47% 29.36 in 10.0 mi West 32.2 mph 51.8 mph N/A   Scattered Clouds
10:51 AM 45.0 °F 34.7 °F 21.0 °F 39% 29.40 in 10.0 mi West 33.4 mph 41.4 mph N/A   Scattered Clouds
11:51 AM 46.0 °F 36.2 °F 19.0 °F 34% 29.42 in 10.0 mi West 33.4 mph 43.7 mph N/A   Scattered Clouds
12:51 PM 46.0 °F 36.5 °F 19.0 °F 34% 29.43 in 10.0 mi West 31.1 mph 42.6 mph N/A   Scattered Clouds
1:51 PM 45.0 °F 36.4 °F 19.0 °F 36% 29.47 in 10.0 mi WSW 23.0 mph 42.6 mph N/A   Scattered Clouds
2:51 PM 44.1 °F 34.4 °F 18.0 °F 35% 29.51 in 10.0 mi West 27.6 mph 42.6 mph N/A   Scattered Clouds
3:51 PM 42.1 °F 31.9 °F 15.1 °F 34% 29.55 in 10.0 mi West 26.5 mph 44.9 mph N/A   Scattered Clouds
4:51 PM 39.0 °F 27.0 °F 17.1 °F 41% 29.60 in 10.0 mi West 31.1 mph 40.3 mph N/A   Scattered Clouds
5:51 PM 36.0 °F 23.2 °F 12.9 °F 39% 29.67 in 10.0 mi West 28.8 mph 43.7 mph 0.00 in   Partly Cloudy
6:51 PM 35.1 °F 23.0 °F 12.9 °F 40% 29.71 in 10.0 mi WSW 24.2 mph 29.9 mph N/A   Partly Cloudy
7:51 PM 33.1 °F 21.2 °F 15.1 °F 48% 29.73 in 10.0 mi West 20.7 mph 31.1 mph N/A   Scattered Clouds
8:51 PM 32.0 °F 20.8 °F 19.0 °F 59% 29.75 in 10.0 mi WSW 17.3 mph 26.5 mph 0.00 in   Scattered Clouds
9:51 PM 32.0 °F 17.9 °F 10.0 °F 40% 29.77 in 10.0 mi West 28.8 mph 36.8 mph N/A   Partly Cloudy
10:51 PM 30.9 °F 16.7 °F 7.0 °F 37% 29.78 in 10.0 mi West 27.6 mph 35.7 mph N/A   Partly Cloudy
11:51 PM 30.0 °F 19.1 °F 8.1 °F 40% 29.80 in 10.0 mi West 15.0 mph - N/A   Partly Cloudy